Theta_e
319 318 317 316 315 314 313 311 308 303 303 307 305 299 298 295 293 293 293 294 294 296 297 298 298 298 299 299 300 301 303 304 304 306 307 309 310 312
317 315 312 311 309 309 310 310 310 308 303 306 298 297 293 292 291 290 291 291 291 293 295 295 295 296 296 297 298 299 299 300 301 301 302 303 305 308
304 304 302 303 302 301 301 301 299 301 303 300 296 294 291 288 288 288 288 287 287 291 293 293 293 295 295 296 296 297 297 297 297 298 298 300 301 303
298 298 297 298 297 297 297 296 295 295 296 292 291 289 289 286 286 285 286 286 285 289 291 291 292 293 293 293 293 294 293 294 295 295 296 297 298 300
294 294 294 294 293 293 293 292 292 291 290 288 286 287 287 284 282 283 283 282 285 288 288 289 290 291 291 291 292 291 291 292 293 293 294 294 296 297
291 291 291 291 291 290 289 288 287 286 286 284 283 283 281 282 281 281 280 282 281 284 285 286 288 287 288 289 289 289 291 292 293 294 294 294 294 295
289 289 289 288 289 289 286 285 285 283 282 281 280 280 281 281 280 281 279 280 277 279 280 281 281 281 283 285 286 290 292 292 293 294 294 294 295 294
285 285 286 285 288 289 289 288 286 283 282 281 281 280 280 281 281 280 280 278 274 277 278 277 280 279 281 282 288 291 292 292 293 294 297 297 295 295
283 283 283 284 283 284 286 286 286 287 285 283 281 281 280 281 281 279 279 278 276 280 277 271 275 278 281 283 289 290 290 291 292 294 298 298 296 295
282 282 282 282 282 282 281 281 282 284 284 284 283 283 283 283 282 281 280 275 270 279 278 270 273 276 279 281 287 289 289 289 291 294 296 297 296 295
282 282 282 282 285 285 282 281 281 281 285 285 285 284 284 284 284 279 276 271 264 269 275 276 272 276 272 276 283 287 287 288 290 292 295 295 297 296
282 283 284 283 285 284 281 280 279 279 278 278 281 282 282 282 283 280 279 271 273 266 274 275 271 275 272 273 280 282 282 286 287 290 294 295 294 294
280 280 282 285 285 285 283 280 280 280 280 280 280 280 280 280 280 279 278 277 274 269 275 275 272 271 269 272 273 279 280 282 283 285 290 293 295 293
279 278 280 285 284 284 282 283 282 281 279 278 278 277 278 278 278 274 273 272 274 272 272 274 273 274 271 268 272 275 277 281 281 282 284 288 291 293
278 282 284 284 282 281 282 281 279 279 278 277 276 276 277 273 270 268 269 266 266 266 269 268 274 268 265 267 267 273 275 275 279 280 282 283 284 285
281 276 279 279 278 273 271 277 278 278 277 276 276 272 267 265 265 265 264 263 261 263 267 267 266 273 267 262 265 270 272 273 276 278 281 283 283 285
268 265 263 264 264 264 266 274 276 277 276 277 269 265 263 262 263 261 262 260 261 260 263 264 264 261 265 273 267 270 269 272 274 275 278 280 282 283
263 261 260 259 262 260 267 272 275 276 276 277 271 264 262 261 261 259 259 258 259 259 261 260 260 264 265 268 277 271 266 265 272 274 275 278 278 281
260 258 260 262 259 258 260 272 272 275 276 275 275 264 260 260 260 258 258 258 259 257 259 257 261 259 259 259 265 278 269 267 267 274 273 275 277 279
258 260 262 262 261 261 268 271 260 268 270 262 270 263 257 259 259 258 257 257 257 256 261 261 263 261 259 261 262 269 278 264 261 263 264 267 270 278
261 261 261 265 263 265 269 268 264 264 261 262 260 263 264 264 259 256 257 259 259 257 260 261 262 263 259 259 262 266 269 276 273 263 260 261 260 264
265 267 266 266 266 267 269 270 266 264 262 263 263 264 264 265 264 260 257 260 259 257 259 259 261 260 261 261 257 257 261 263 269 276 278 272 263 263
269 269 267 267 266 266 266 269 268 266 264 265 265 263 264 264 260 260 258 258 259 259 259 261 261 261 257 257 257 256 257 258 259 262 265 277 279 278
Wind_Speed
8 8 7 4 4 4 4 3 3 2 2 2 3 7 5 6 10 7 7 14 17 17 17 16 18 19 19 20 20 21 22 22 23 24 24 25 25 24
3 3 3 2 3 2 1 1 2 2 2 3 5 3 6 6 8 8 8 11 15 16 16 18 20 19 19 21 20 20 21 23 24 24 25 25 25 25
7 6 7 6 4 4 4 4 3 2 2 3 3 4 4 8 7 7 6 6 6 15 17 19 19 20 21 22 23 23 23 23 24 25 26 26 25 25
7 8 8 5 7 6 4 5 5 4 2 3 3 5 4 8 5 6 6 6 5 10 20 18 19 20 20 21 22 21 23 25 26 27 28 27 27 25
6 7 8 5 7 5 5 5 4 4 4 3 3 3 2 5 4 5 5 5 5 10 18 19 19 22 22 21 22 23 24 27 29 30 29 28 26 26
8 7 8 7 7 6 5 5 5 5 5 4 3 3 3 3 3 7 7 6 6 6 16 16 17 19 18 20 20 23 28 30 30 31 30 29 27 23
9 10 9 9 13 9 4 4 4 4 5 4 4 2 5 5 7 6 3 8 3 6 12 8 6 8 9 16 16 27 31 31 32 32 31 28 24 21
9 7 8 9 14 16 17 14 8 5 4 3 4 4 7 5 5 6 7 7 6 5 11 7 8 10 8 9 23 29 31 32 34 37 32 22 20 18
7 6 7 6 7 6 13 16 16 16 12 6 8 5 5 6 7 5 6 4 3 5 10 5 6 9 7 10 25 32 33 35 35 41 28 15 9 12
8 7 6 6 5 5 7 9 8 9 8 7 8 6 6 5 7 4 6 5 2 2 10 4 4 6 7 8 23 32 33 36 37 38 31 13 7 4
6 6 6 5 8 9 6 7 7 7 10 15 15 12 11 12 11 3 5 4 3 2 5 4 4 8 4 6 10 28 32 36 36 37 38 33 6 6
5 5 10 7 10 9 4 5 8 5 4 6 7 7 8 7 12 7 5 5 4 4 4 7 4 6 6 3 8 11 14 31 32 35 38 34 30 15
4 3 3 11 11 11 8 3 5 5 9 7 5 4 4 6 4 5 5 2 4 2 5 6 3 4 2 5 4 9 12 15 14 17 28 34 30 22
4 1 2 10 11 11 7 13 12 8 5 5 5 5 5 4 3 4 5 4 4 2 5 5 3 4 4 4 5 8 11 12 12 13 13 19 26 29
3 8 10 10 12 10 12 11 8 5 5 5 4 2 1 0 3 3 4 4 3 3 5 3 3 3 3 2 3 6 8 8 13 11 11 12 11 9
8 4 8 9 10 7 4 6 5 4 4 5 4 1 3 3 3 2 3 3 3 4 5 5 6 7 3 2 2 5 8 7 9 9 8 10 11 10
6 4 3 2 2 2 3 3 3 4 4 3 2 2 2 3 3 3 3 3 4 2 4 5 5 2 4 8 5 6 7 6 8 8 8 10 10 9
4 3 2 2 3 3 3 4 4 4 3 3 1 2 1 2 2 3 3 3 3 2 2 3 4 4 5 5 17 8 4 4 7 8 7 8 10 10
1 2 3 4 4 3 3 4 5 3 4 2 2 2 1 2 3 3 2 2 3 3 3 3 4 4 4 3 5 18 4 5 5 9 7 7 7 8
3 4 4 5 5 5 5 5 3 3 2 2 2 3 2 2 2 2 2 1 1 2 3 4 4 4 4 3 2 3 17 2 3 3 4 4 3 13
4 4 4 5 5 5 5 4 4 4 3 3 3 3 3 3 2 2 2 2 2 1 3 3 2 2 2 2 4 4 4 15 10 2 2 3 2 4
4 5 5 4 5 6 5 4 3 3 3 3 3 3 3 3 3 3 3 3 1 1 2 2 3 2 4 3 2 2 3 5 8 12 14 4 3 1
7 7 5 6 6 6 5 5 5 4 4 4 4 3 4 3 3 3 3 3 3 2 1 1 3 3 2 3 3 1 4 4 4 5 5 15 6 2
Wind_Direction
214 215 216 203 200 205 193 178 184 242 205 179 124 49 44 28 15 7 5 359 7 4 358 356 356 347 343 340 334 329 327 325 319 316 313 310 306 304
218 170 99 78 86 74 201 185 179 202 213 33 61 75 39 19 9 357 358 355 357 1 359 356 351 348 345 342 339 338 333 329 324 319 314 309 304 301
45 72 75 58 66 58 56 62 57 24 191 89 74 24 50 16 360 355 347 355 344 353 357 357 356 352 350 343 339 339 338 336 331 324 318 313 307 299
76 76 52 65 63 53 53 57 65 45 53 78 36 3 44 11 348 345 347 353 329 338 355 353 353 349 347 349 345 342 338 334 329 322 317 314 305 297
72 85 92 76 75 71 67 73 53 56 58 87 70 4 352 14 345 337 326 334 324 339 351 349 344 350 352 349 343 343 335 333 325 319 313 307 302 294
75 68 70 77 85 89 87 80 80 79 67 69 66 31 9 339 342 353 340 350 337 349 352 341 340 347 347 344 340 338 337 332 326 319 310 302 296 288
70 69 68 72 72 65 81 65 81 82 79 69 64 54 31 12 7 339 320 328 323 13 342 325 336 345 348 342 340 343 341 337 330 319 305 290 284 281
85 71 66 63 74 77 76 77 72 75 82 99 75 67 44 22 11 358 349 359 340 2 342 325 1 340 334 328 341 351 349 342 336 330 317 288 265 271
92 84 75 64 71 88 88 74 70 74 78 89 85 56 52 28 12 360 352 341 308 333 347 317 342 328 332 323 350 356 352 349 346 346 344 333 268 265
67 69 85 94 106 106 88 78 79 79 72 76 83 67 59 24 23 349 328 309 347 315 3 318 316 318 322 320 349 358 355 356 356 355 1 359 3 293
70 68 68 80 109 119 100 103 86 69 74 82 80 71 53 37 28 356 9 25 331 311 6 321 312 318 315 315 342 356 356 359 1 5 19 18 29 18
66 78 96 102 99 114 121 125 106 92 97 74 75 64 53 34 31 28 20 36 7 349 339 346 316 347 331 309 328 353 351 0 2 8 23 29 44 64
99 69 74 99 100 103 117 117 109 95 85 84 78 60 45 43 13 21 17 43 27 356 324 351 328 332 321 303 322 341 345 357 1 7 16 31 43 63
118 88 90 107 104 94 88 97 104 101 97 89 73 53 38 28 10 22 25 48 57 147 317 1 14 346 324 328 343 329 341 2 8 9 14 22 40 54
143 120 115 107 86 75 96 106 100 99 103 102 91 78 74 26 349 21 10 55 33 8 1 354 353 8 25 25 307 342 346 342 1 8 13 22 23 33
119 104 114 100 92 88 63 84 97 106 119 118 110 51 359 12 16 2 54 1 58 334 333 358 9 21 21 40 21 356 3 8 345 2 11 32 28 31
97 53 40 62 67 48 56 84 106 118 118 118 89 77 26 24 10 351 25 36 72 340 325 327 347 11 27 40 29 13 1 2 355 355 13 42 33 30
68 141 192 173 143 151 135 140 137 140 137 132 78 76 52 58 47 1 38 73 74 351 351 328 346 13 9 359 43 6 6 360 353 3 22 44 41 24
123 207 180 177 167 168 184 191 172 171 157 149 142 72 105 39 58 33 10 31 21 3 349 337 31 65 61 32 304 27 24 347 333 41 23 30 58 38
189 187 192 182 171 169 179 185 178 201 150 160 135 104 102 127 75 52 32 89 47 10 7 10 40 59 114 183 154 310 15 58 48 354 0 342 335 32
210 212 196 180 179 178 183 185 170 178 178 167 166 160 167 148 136 140 136 80 125 52 58 3 277 241 173 55 34 340 324 17 36 102 330 52 6 355
204 211 196 184 179 182 182 185 170 166 176 187 171 163 169 166 154 154 153 132 116 185 193 264 327 64 64 98 176 278 320 327 355 28 36 120 147 2
212 208 190 190 183 179 177 186 187 183 188 189 172 171 161 164 170 150 139 145 151 142 156 7 3 42 73 102 132 3 353 338 348 349 337 15 26 53